Weather in Avdiivka

Ukraine / Donetsk Region     48˚09′00″N   37˚44′13″E
temp.,
°C
wind,
m/s
gust,
m/s
humid.,
%
clouds,
%
prec.,
mm/h
press.,
hPa
HPBL,
m
2 december, wed
wed223:00ese71179100 0.0 1028626
02:00e81280100 0.0 1028485
05:00ese6118194 0.0 1028534
08:00+1˚ese6118198 0.0 1029597
11:00+2˚ese71175100 0.0 1029609
14:00+2˚ese6107589 0.0 1028706
17:00+1˚ese71180100 0.0 1029638
20:00+1˚ese71282100 0.0 1029602
3 december, thu
thu323:00+1˚ese61189100 0.3 1029490
02:00+1˚ese71288100 1.2 1029501
05:00ese61187100 0.3 1028481
08:00se61187100 0.7 1029455
11:00+1˚se61188100 0.1 1029435
14:00+1˚se5990100 0.3 1028451
17:00+1˚ese5993100 0.1 1028407
20:00+1˚se51091100 0.1 1028468
4 december, fri
fri423:00+1˚ese5987100 0.0 1028502
02:00+1˚ese5986100 0.0 1028478
05:00+1˚ese5888100 0.2 1027432
08:00ese6984100 0.2 1028424
11:00+2˚ese61081100 0.0 1027534
14:00+2˚ese6979100 0.0 1027560
17:00+1˚ese61081100 0.0 1028544
20:00+1˚ese61181100 0.0 1029561
5 december, sat
sat523:00+1˚ese6108095 0.0 1029446
02:00ese6107698 0.0 1029441
05:00−2˚ese51080100 0.0 1029434
08:00−1˚ese6107985 0.0 1030440
11:00+1˚ese6107289 0.0 1031464
14:00+1˚e6106988 0.0 1030506
17:00−1˚e6117115 0.0 1031431
20:00−2˚ese611599 0.0 1032428
6 december, sun
sun623:00−3˚ese611550 0.0 1033429
02:00−3˚e611540 0.0 1033418
05:00−4˚e511550 0.0 1033406
08:00−4˚e612520 0.0 1034412
11:00−1˚ese711390 0.0 1033506
14:00e711400 0.0 1033549
17:00−3˚e613510 0.0 1033417
20:00−4˚e612480 0.0 1034420